When you browse on this site, cookies collect data to enhance your experience and personalize the content and advertising you see.
Visit our Privacy Policy to learn more. By continuing to use the site, you agree to this use of cookies and data.
  • en Suisse
  • Liste des pays
  • À 7 jours
  • Température de l'eau
  • Carte satellitaire
  • Carte météo
  • Widgets météo
  • user-avatar
    Se connecter

    Météo par heure à Plebanivka

    Ce jour, 22 Juillet, Lundi

    Heure Température Précipitation Vent Pression Humidité
    00:00 +18°C° 0.1 mm 4 m/s 735 mmHg 91%
    01:00 +17°C° 0.1 mm 4 m/s 735 mmHg 92%
    02:00 +17°C° 0.1 mm 4 m/s 735 mmHg 93%
    03:00 +17°C° 0 mm 4 m/s 735 mmHg 94%
    04:00 +17°C° 0 mm 4 m/s 735 mmHg 95%
    05:00 +17°C° 0 mm 4 m/s 735 mmHg 96%
    06:00 +18°C° 0 mm 4 m/s 735 mmHg 93%
    07:00 +19°C° 0 mm 5 m/s 735 mmHg 89%
    08:00 +20°C° 0 mm 5 m/s 735 mmHg 86%
    09:00 +21°C° 0 mm 5 m/s 735 mmHg 81%
    10:00 +22°C° 0 mm 6 m/s 736 mmHg 77%
    11:00 +24°C° 0 mm 6 m/s 736 mmHg 72%
    12:00 +24°C° 0.1 mm 6 m/s 736 mmHg 70%
    13:00 +25°C° 0.1 mm 5 m/s 736 mmHg 68%
    14:00 +26°C° 0.1 mm 5 m/s 735 mmHg 66%
    15:00 +25°C° 0.2 mm 5 m/s 735 mmHg 69%
    16:00 +23°C° 0.2 mm 5 m/s 735 mmHg 71%
    17:00 +23°C° 0.2 mm 5 m/s 735 mmHg 74%
    18:00 +22°C° 0 mm 4 m/s 735 mmHg 78%
    19:00 +20°C° 0 mm 3 m/s 735 mmHg 81%
    20:00 +19°C° 0 mm 3 m/s 735 mmHg 85%
    21:00 +18°C° 0 mm 3 m/s 735 mmHg 86%
    22:00 +17°C° 0 mm 3 m/s 735 mmHg 87%
    23:00 +16°C° 0 mm 3 m/s 735 mmHg 88%

    Demain, 23 Juillet, Mardi

    Heure Température Précipitation Vent Pression Humidité
    00:00 +16°C° 0 mm 3 m/s 735 mmHg 88%
    01:00 +16°C° 0 mm 3 m/s 735 mmHg 87%
    02:00 +16°C° 0 mm 2 m/s 735 mmHg 86%
    03:00 +16°C° 0.1 mm 2 m/s 735 mmHg 87%
    04:00 +16°C° 0.1 mm 2 m/s 735 mmHg 88%
    05:00 +16°C° 0.1 mm 2 m/s 735 mmHg 89%
    06:00 +17°C° 0.1 mm 3 m/s 735 mmHg 86%
    07:00 +18°C° 0.1 mm 3 m/s 735 mmHg 83%
    08:00 +19°C° 0.1 mm 3 m/s 735 mmHg 79%
    09:00 +20°C° 0.3 mm 4 m/s 735 mmHg 75%
    10:00 +21°C° 0.3 mm 4 m/s 735 mmHg 70%
    11:00 +21°C° 0.3 mm 5 m/s 735 mmHg 66%
    12:00 +22°C° 0 mm 5 m/s 734 mmHg 64%
    13:00 +22°C° 0 mm 5 m/s 734 mmHg 62%
    14:00 +23°C° 0 mm 5 m/s 734 mmHg 60%
    15:00 +22°C° 0.2 mm 5 m/s 734 mmHg 63%
    16:00 +22°C° 0.2 mm 5 m/s 734 mmHg 65%
    17:00 +22°C° 0.2 mm 5 m/s 734 mmHg 67%
    18:00 +20°C° 0 mm 4 m/s 734 mmHg 73%
    19:00 +19°C° 0 mm 3 m/s 734 mmHg 78%
    20:00 +18°C° 0 mm 3 m/s 733 mmHg 84%
    21:00 +17°C° 0 mm 3 m/s 734 mmHg 86%
    22:00 +16°C° 0 mm 3 m/s 734 mmHg 88%
    23:00 +16°C° 0 mm 3 m/s 734 mmHg 89%

    Après-demain, 24 Juillet, Mercredi

    Heure Température Précipitation Vent Pression Humidité
    00:00 +14°C° 0 mm 4 m/s 734 mmHg 89%
    01:00 +14°C° 0 mm 4 m/s 734 mmHg 89%
    02:00 +14°C° 0 mm 4 m/s 734 mmHg 88%
    03:00 +14°C° 0 mm 4 m/s 734 mmHg 91%
    04:00 +13°C° 0 mm 4 m/s 734 mmHg 93%
    05:00 +13°C° 0 mm 4 m/s 734 mmHg 95%
    06:00 +15°C° 0 mm 4 m/s 734 mmHg 91%
    07:00 +17°C° 0 mm 4 m/s 734 mmHg 86%
    08:00 +17°C° 0 mm 5 m/s 734 mmHg 82%
    09:00 +19°C° 0.1 mm 5 m/s 734 mmHg 79%
    10:00 +21°C° 0.1 mm 5 m/s 734 mmHg 75%
    11:00 +22°C° 0.1 mm 5 m/s 734 mmHg 71%
    12:00 +22°C° 0.4 mm 5 m/s 734 mmHg 71%
    13:00 +23°C° 0.4 mm 5 m/s 734 mmHg 71%
    14:00 +23°C° 0.4 mm 5 m/s 734 mmHg 71%
    15:00 +23°C° 0.3 mm 5 m/s 733 mmHg 72%
    16:00 +23°C° 0.3 mm 5 m/s 733 mmHg 72%
    17:00 +23°C° 0.3 mm 5 m/s 733 mmHg 73%
    18:00 +21°C° 0.1 mm 4 m/s 733 mmHg 78%
    19:00 +20°C° 0.1 mm 4 m/s 733 mmHg 83%
    20:00 +19°C° 0.1 mm 3 m/s 733 mmHg 88%
    21:00 +18°C° 0 mm 3 m/s 734 mmHg 89%
    22:00 +17°C° 0 mm 3 m/s 734 mmHg 91%
    23:00 +17°C° 0 mm 3 m/s 734 mmHg 93%

    25 Juillet, Jeudi

    Heure Température Précipitation Vent Pression Humidité
    00:00 +16°C° 0 mm 3 m/s 734 mmHg 93%
    01:00 +16°C° 0 mm 3 m/s 734 mmHg 94%
    02:00 +16°C° 0 mm 3 m/s 734 mmHg 95%
    03:00 +16°C° 0 mm 3 m/s 734 mmHg 95%
    04:00 +14°C° 0 mm 3 m/s 734 mmHg 95%
    05:00 +14°C° 0 mm 3 m/s 734 mmHg 95%
    06:00 +17°C° 0 mm 3 m/s 735 mmHg 91%
    07:00 +18°C° 0 mm 3 m/s 735 mmHg 86%
    08:00 +19°C° 0 mm 4 m/s 735 mmHg 81%
    09:00 +21°C° 0 mm 4 m/s 735 mmHg 74%
    10:00 +22°C° 0 mm 4 m/s 735 mmHg 67%
    11:00 +23°C° 0 mm 4 m/s 736 mmHg 59%
    12:00 +25°C° 0 mm 5 m/s 735 mmHg 59%
    13:00 +25°C° 0 mm 5 m/s 735 mmHg 58%
    14:00 +25°C° 0 mm 5 m/s 735 mmHg 57%
    15:00 +25°C° 0 mm 5 m/s 735 mmHg 59%
    16:00 +25°C° 0 mm 5 m/s 735 mmHg 60%
    17:00 +25°C° 0 mm 5 m/s 735 mmHg 62%
    18:00 +22°C° 0.1 mm 4 m/s 734 mmHg 69%
    19:00 +21°C° 0.1 mm 4 m/s 734 mmHg 76%
    20:00 +19°C° 0.1 mm 3 m/s 734 mmHg 84%
    21:00 +18°C° 0 mm 3 m/s 734 mmHg 84%
    22:00 +18°C° 0 mm 3 m/s 734 mmHg 85%
    23:00 +17°C° 0 mm 3 m/s 734 mmHg 85%

    26 Juillet, Vendredi

    Heure Température Précipitation Vent Pression Humidité
    00:00 +17°C° 0 mm 3 m/s 734 mmHg 87%
    01:00 +16°C° 0 mm 3 m/s 734 mmHg 88%
    02:00 +16°C° 0 mm 3 m/s 734 mmHg 90%
    03:00 +16°C° 0 mm 3 m/s 734 mmHg 92%
    04:00 +16°C° 0 mm 3 m/s 734 mmHg 93%
    05:00 +16°C° 0 mm 3 m/s 734 mmHg 95%
    06:00 +17°C° 0 mm 3 m/s 734 mmHg 92%
    07:00 +18°C° 0 mm 4 m/s 734 mmHg 89%
    08:00 +19°C° 0 mm 4 m/s 734 mmHg 86%
    09:00 +20°C° 0 mm 4 m/s 734 mmHg 83%
    10:00 +21°C° 0 mm 4 m/s 734 mmHg 80%
    11:00 +22°C° 0 mm 4 m/s 734 mmHg 78%
    12:00 +23°C° 0.2 mm 4 m/s 734 mmHg 76%
    13:00 +23°C° 0.2 mm 4 m/s 734 mmHg 75%
    14:00 +25°C° 0.2 mm 4 m/s 734 mmHg 73%
    15:00 +25°C° 0.1 mm 4 m/s 734 mmHg 72%
    16:00 +25°C° 0.1 mm 4 m/s 734 mmHg 71%
    17:00 +25°C° 0.1 mm 3 m/s 734 mmHg 71%
    18:00 +24°C° 0 mm 3 m/s 734 mmHg 76%
    19:00 +22°C° 0 mm 3 m/s 734 mmHg 82%
    20:00 +21°C° 0 mm 2 m/s 734 mmHg 88%
    21:00 +20°C° 0 mm 2 m/s 734 mmHg 89%
    22:00 +19°C° 0 mm 2 m/s 734 mmHg 91%
    23:00 +19°C° 0 mm 2 m/s 734 mmHg 93%

    27 Juillet, Samedi

    Heure Température Précipitation Vent Pression Humidité
    00:00 +19°C° 0 mm 1 m/s 734 mmHg 93%
    01:00 +19°C° 0 mm 1 m/s 734 mmHg 93%
    02:00 +19°C° 0 mm 1 m/s 734 mmHg 94%
    03:00 +18°C° 0 mm 1 m/s 733 mmHg 94%
    04:00 +18°C° 0 mm 1 m/s 733 mmHg 94%
    05:00 +18°C° 0 mm 1 m/s 733 mmHg 94%
    06:00 +18°C° 0 mm 2 m/s 733 mmHg 89%
    07:00 +20°C° 0 mm 2 m/s 733 mmHg 85%
    08:00 +21°C° 0 mm 2 m/s 733 mmHg 80%
    09:00 +24°C° 0 mm 2 m/s 733 mmHg 73%
    10:00 +25°C° 0 mm 2 m/s 733 mmHg 67%
    11:00 +26°C° 0 mm 3 m/s 734 mmHg 61%
    12:00 +26°C° 0 mm 3 m/s 733 mmHg 60%
    13:00 +27°C° 0 mm 3 m/s 733 mmHg 59%
    14:00 +27°C° 0 mm 3 m/s 733 mmHg 58%
    15:00 +27°C° 0 mm 3 m/s 732 mmHg 58%
    16:00 +27°C° 0 mm 3 m/s 732 mmHg 59%
    17:00 +27°C° 0 mm 3 m/s 732 mmHg 59%
    18:00 +25°C° 0 mm 2 m/s 732 mmHg 66%
    19:00 +23°C° 0 mm 2 m/s 732 mmHg 72%
    20:00 +21°C° 0 mm 2 m/s 732 mmHg 78%
    21:00 +21°C° 0 mm 1 m/s 732 mmHg 80%
    22:00 +20°C° 0 mm 1 m/s 732 mmHg 81%
    23:00 +17°C° 0 mm 0 m/s 732 mmHg 82%
    Voir plus